AVA9295 SKCL-SKPS

Flight info

Callsign AVA9295
Flight time 0h 36m
Altitude 26000
Route CLO1D DAKOP DCT PAKEX PAKEX1A
Aircraft A320/M-SDE3FGHIRWY/LB1

Departure

Time 2026-04-24 00:04
Airport Alfonso Bonilla Aragon International Airport (SKCL)

Arrival

Time 2026-04-24 00:40
Airport Antonio Nariño Airport (SKPS)
Time Latitude Longitude Altitude Speed Heading
2026-04-23 23:51 3.53646 -76.38609 3162 ft 0 kts 282°
2026-04-23 23:56 3.53642 -76.38589 3162 ft 4 kts 277°
2026-04-23 23:56 3.53640 -76.38562 3162 ft 4 kts 268°
2026-04-23 23:56 3.53644 -76.38536 3163 ft 4 kts 247°
2026-04-23 23:56 3.53657 -76.38517 3164 ft 3 kts 193°
2026-04-23 23:57 3.53665 -76.38516 3163 ft 0 kts 189°
2026-04-24 00:00 3.53626 -76.38522 3164 ft 13 kts 189°
2026-04-24 00:00 3.53495 -76.38547 3162 ft 19 kts 192°
2026-04-24 00:00 3.53389 -76.38557 3162 ft 11 kts 162°
2026-04-24 00:01 3.53353 -76.38514 3162 ft 7 kts 143°
2026-04-24 00:01 3.53310 -76.38507 3162 ft 7 kts 186°
2026-04-24 00:01 3.53209 -76.38525 3162 ft 23 kts 190°
2026-04-24 00:01 3.53070 -76.38549 3162 ft 13 kts 190°
2026-04-24 00:02 3.53002 -76.38533 3162 ft 9 kts 122°
2026-04-24 00:02 3.52987 -76.38475 3161 ft 8 kts 95°
2026-04-24 00:02 3.52998 -76.38409 3160 ft 13 kts 82°
2026-04-24 00:02 3.53050 -76.38390 3160 ft 7 kts 13°
2026-04-24 00:03 3.53129 -76.38373 3159 ft 22 kts
2026-04-24 00:03 3.53497 -76.38313 3162 ft 88 kts
2026-04-24 00:03 3.54301 -76.38177 3165 ft 145 kts
2026-04-24 00:03 3.55438 -76.37976 3285 ft 179 kts 10°
2026-04-24 00:04 3.56657 -76.37742 4001 ft 178 kts
2026-04-24 00:04 3.57875 -76.37531 4683 ft 177 kts
2026-04-24 00:04 3.59101 -76.37337 5152 ft 182 kts
2026-04-24 00:04 3.60393 -76.37127 5527 ft 193 kts
2026-04-24 00:05 3.61756 -76.36892 5872 ft 206 kts 10°
2026-04-24 00:05 3.63216 -76.36628 6197 ft 221 kts 10°
2026-04-24 00:05 3.64755 -76.36343 6668 ft 227 kts 10°
2026-04-24 00:05 3.66310 -76.36057 7203 ft 230 kts 10°
2026-04-24 00:06 3.67894 -76.35775 7850 ft 230 kts
2026-04-24 00:06 3.69475 -76.35501 8539 ft 232 kts
2026-04-24 00:06 3.71082 -76.35418 9134 ft 234 kts 347°
2026-04-24 00:06 3.72491 -76.36207 9609 ft 237 kts 308°
2026-04-24 00:07 3.73207 -76.37683 10123 ft 240 kts 277°
2026-04-24 00:07 3.73061 -76.39315 10698 ft 238 kts 247°
2026-04-24 00:07 3.72116 -76.40655 11240 ft 239 kts 217°
2026-04-24 00:07 3.70606 -76.41322 11790 ft 242 kts 185°
2026-04-24 00:08 3.68920 -76.41177 12302 ft 246 kts 172°
2026-04-24 00:08 3.67211 -76.40953 12870 ft 249 kts 175°
2026-04-24 00:08 3.65482 -76.40780 13450 ft 251 kts 176°
2026-04-24 00:08 3.63731 -76.40624 14015 ft 254 kts 178°
2026-04-24 00:09 3.61925 -76.40598 14289 ft 270 kts 182°
2026-04-24 00:09 3.59967 -76.40609 14402 ft 292 kts 182°
2026-04-24 00:09 3.57857 -76.40623 14527 ft 314 kts 181°
2026-04-24 00:09 3.55598 -76.40635 14646 ft 335 kts 181°
2026-04-24 00:10 3.53199 -76.40643 14761 ft 354 kts 181°
2026-04-24 00:10 3.50668 -76.40646 14839 ft 372 kts 181°
2026-04-24 00:10 3.48044 -76.40646 15168 ft 382 kts 181°
2026-04-24 00:10 3.45373 -76.40645 15656 ft 386 kts 181°
2026-04-24 00:11 3.42707 -76.40943 16151 ft 387 kts 195°
2026-04-24 00:11 3.40218 -76.41973 16648 ft 389 kts 212°
2026-04-24 00:11 3.38124 -76.43685 17154 ft 391 kts 229°
2026-04-24 00:11 3.36534 -76.45855 17650 ft 393 kts 236°
2026-04-24 00:12 3.35000 -76.48137 18155 ft 397 kts 236°
2026-04-24 00:12 3.33450 -76.50437 18581 ft 400 kts 236°
2026-04-24 00:12 3.31889 -76.52752 19044 ft 402 kts 236°
2026-04-24 00:12 3.30299 -76.55111 19495 ft 405 kts 236°
2026-04-24 00:13 3.28722 -76.57449 19940 ft 408 kts 236°
2026-04-24 00:13 3.27148 -76.59780 20375 ft 410 kts 236°
2026-04-24 00:13 3.25521 -76.62183 20822 ft 413 kts 236°
2026-04-24 00:13 3.23930 -76.64534 21216 ft 416 kts 236°
2026-04-24 00:14 3.22302 -76.66942 21636 ft 419 kts 236°
2026-04-24 00:14 3.20664 -76.69362 22047 ft 421 kts 236°
2026-04-24 00:14 3.19015 -76.71801 22424 ft 425 kts 236°
2026-04-24 00:14 3.17355 -76.74259 22797 ft 428 kts 236°
2026-04-24 00:15 3.15685 -76.76734 23169 ft 431 kts 236°
2026-04-24 00:15 3.14003 -76.79227 23524 ft 434 kts 236°
2026-04-24 00:15 3.12310 -76.81737 23828 ft 436 kts 236°
2026-04-24 00:15 3.10606 -76.84260 24138 ft 439 kts 236°
2026-04-24 00:16 3.08893 -76.86796 24429 ft 441 kts 236°
2026-04-24 00:16 3.07175 -76.89340 24770 ft 442 kts 236°
2026-04-24 00:16 3.05451 -76.91888 25093 ft 443 kts 236°
2026-04-24 00:16 3.03720 -76.94442 25382 ft 444 kts 236°
2026-04-24 00:17 3.01983 -76.97007 25668 ft 446 kts 236°
2026-04-24 00:17 3.00241 -76.99579 25914 ft 449 kts 235°
2026-04-24 00:17 2.98490 -77.02165 25985 ft 449 kts 235°
2026-04-24 00:17 2.96739 -77.04754 25995 ft 449 kts 235°
2026-04-24 00:18 2.94987 -77.07344 25991 ft 450 kts 235°
2026-04-24 00:18 2.93233 -77.09934 25973 ft 450 kts 235°
2026-04-24 00:18 2.91480 -77.12526 25974 ft 450 kts 235°
2026-04-24 00:18 2.89728 -77.15119 25975 ft 450 kts 235°
2026-04-24 00:19 2.87976 -77.17713 25978 ft 450 kts 235°
2026-04-24 00:19 2.86222 -77.20306 25974 ft 450 kts 235°
2026-04-24 00:19 2.84398 -77.22847 25973 ft 450 kts 230°
2026-04-24 00:19 2.82219 -77.25088 25964 ft 450 kts 220°
2026-04-24 00:20 2.79700 -77.26931 25962 ft 450 kts 210°
2026-04-24 00:20 2.76905 -77.28330 25967 ft 449 kts 201°
2026-04-24 00:20 2.73922 -77.29248 25963 ft 449 kts 192°
2026-04-24 00:20 2.70869 -77.29910 25963 ft 449 kts 192°
2026-04-24 00:21 2.67816 -77.30574 25985 ft 449 kts 192°
2026-04-24 00:21 2.64763 -77.31243 25985 ft 449 kts 192°
2026-04-24 00:21 2.61712 -77.31913 25985 ft 449 kts 192°
2026-04-24 00:21 2.58661 -77.32586 25989 ft 449 kts 192°
2026-04-24 00:22 2.55614 -77.33258 25982 ft 448 kts 192°
2026-04-24 00:22 2.52568 -77.33931 26010 ft 448 kts 192°
2026-04-24 00:22 2.49522 -77.34602 26010 ft 448 kts 192°
2026-04-24 00:22 2.46476 -77.35272 26012 ft 448 kts 192°
2026-04-24 00:23 2.43430 -77.35942 26009 ft 448 kts 192°
2026-04-24 00:23 2.40384 -77.36609 26010 ft 448 kts 192°
2026-04-24 00:23 2.37337 -77.37274 26026 ft 448 kts 192°
2026-04-24 00:23 2.34290 -77.37937 26015 ft 448 kts 192°
2026-04-24 00:24 2.31250 -77.38600 26019 ft 448 kts 192°
2026-04-24 00:24 2.28242 -77.39259 25867 ft 447 kts 192°
2026-04-24 00:24 2.25215 -77.39925 25234 ft 444 kts 192°
2026-04-24 00:24 2.22208 -77.40585 24632 ft 441 kts 192°
2026-04-24 00:25 2.19225 -77.41241 24042 ft 438 kts 192°
2026-04-24 00:25 2.16261 -77.41890 23439 ft 434 kts 192°
2026-04-24 00:25 2.13318 -77.42532 22815 ft 431 kts 192°
2026-04-24 00:25 2.10401 -77.43168 22232 ft 427 kts 193°
2026-04-24 00:26 2.07512 -77.43799 21668 ft 423 kts 193°
2026-04-24 00:26 2.04653 -77.44426 21138 ft 419 kts 193°
2026-04-24 00:26 2.01818 -77.45048 20608 ft 416 kts 193°
2026-04-24 00:26 1.99002 -77.45666 20112 ft 412 kts 193°
2026-04-24 00:27 1.96210 -77.46280 19619 ft 409 kts 193°
2026-04-24 00:27 1.93438 -77.46887 19149 ft 406 kts 192°
2026-04-24 00:27 1.90637 -77.47059 18706 ft 404 kts 174°
2026-04-24 00:27 1.87950 -77.46293 18251 ft 403 kts 154°
2026-04-24 00:28 1.85690 -77.44661 17706 ft 403 kts 134°
2026-04-24 00:28 1.84118 -77.42362 17156 ft 402 kts 114°
2026-04-24 00:28 1.83370 -77.39688 16651 ft 400 kts 101°
2026-04-24 00:28 1.82871 -77.36955 16127 ft 399 kts 100°
2026-04-24 00:29 1.82380 -77.34236 15649 ft 396 kts 100°
2026-04-24 00:29 1.81897 -77.31562 15468 ft 385 kts 101°
2026-04-24 00:29 1.81427 -77.28975 15347 ft 372 kts 101°
2026-04-24 00:29 1.80968 -77.26458 14749 ft 368 kts 101°
2026-04-24 00:30 1.80500 -77.23905 13465 ft 379 kts 101°
2026-04-24 00:30 1.79952 -77.21340 12634 ft 372 kts 110°
2026-04-24 00:30 1.78641 -77.19227 12315 ft 348 kts 138°
2026-04-24 00:30 1.76668 -77.18033 12148 ft 321 kts 165°
2026-04-24 00:31 1.74544 -77.17825 11912 ft 298 kts 190°
2026-04-24 00:31 1.72655 -77.18457 11667 ft 281 kts 210°
2026-04-24 00:31 1.70943 -77.19380 11461 ft 279 kts 210°
2026-04-24 00:31 1.69239 -77.20297 11323 ft 278 kts 210°
2026-04-24 00:32 1.67542 -77.21209 11221 ft 277 kts 210°
2026-04-24 00:32 1.65844 -77.22119 11140 ft 277 kts 210°
2026-04-24 00:32 1.64149 -77.23028 11064 ft 276 kts 210°
2026-04-24 00:32 1.62463 -77.23929 11046 ft 274 kts 210°
2026-04-24 00:33 1.60784 -77.24826 11010 ft 274 kts 210°
2026-04-24 00:33 1.59106 -77.25722 10962 ft 273 kts 210°
2026-04-24 00:33 1.57443 -77.26607 10631 ft 270 kts 210°
2026-04-24 00:33 1.55802 -77.27483 10385 ft 262 kts 210°
2026-04-24 00:34 1.54753 -77.28043 10311 ft 254 kts 210°
2026-04-24 00:34 1.53223 -77.28861 10194 ft 246 kts 210°
2026-04-24 00:34 1.51737 -77.29642 10069 ft 237 kts 209°
2026-04-24 00:34 1.50297 -77.30368 9960 ft 225 kts 208°
2026-04-24 00:35 1.48941 -77.31042 9893 ft 212 kts 208°
2026-04-24 00:35 1.47623 -77.31697 9536 ft 212 kts 208°
2026-04-24 00:35 1.46306 -77.32352 9178 ft 211 kts 208°
2026-04-24 00:35 1.45001 -77.33001 8854 ft 207 kts 208°
2026-04-24 00:36 1.43704 -77.33649 8842 ft 207 kts 207°
2026-04-24 00:36 1.42471 -77.34267 8844 ft 190 kts 207°
2026-04-24 00:36 1.41319 -77.34843 8839 ft 181 kts 207°
2026-04-24 00:36 1.40207 -77.35400 8954 ft 178 kts 209°
2026-04-24 00:37 1.39105 -77.35951 8954 ft 176 kts 208°
2026-04-24 00:37 1.37974 -77.36428 8945 ft 178 kts 195°
2026-04-24 00:37 1.36743 -77.36496 8950 ft 179 kts 173°
2026-04-24 00:37 1.35565 -77.36107 8953 ft 179 kts 151°
2026-04-24 00:38 1.34611 -77.35311 8935 ft 181 kts 129°
2026-04-24 00:38 1.34016 -77.34215 8947 ft 180 kts 107°
2026-04-24 00:38 1.33861 -77.32975 8745 ft 180 kts 85°
2026-04-24 00:38 1.34183 -77.31788 8400 ft 177 kts 62°
2026-04-24 00:39 1.34917 -77.30823 7974 ft 175 kts 41°
2026-04-24 00:39 1.35945 -77.30142 7386 ft 183 kts 21°
2026-04-24 00:39 1.37205 -77.29807 6649 ft 186 kts 17°
2026-04-24 00:39 1.38429 -77.29428 6088 ft 178 kts 15°
2026-04-24 00:40 1.39579 -77.29125 5915 ft 160 kts 16°
2026-04-24 00:40 1.40293 -77.28935 5870 ft 42 kts 14°
2026-04-24 00:40 1.40484 -77.28893 5874 ft 21 kts
2026-04-24 00:40 1.40616 -77.28860 5853 ft 15 kts 27°
2026-04-24 00:41 1.40597 -77.28844 5865 ft 6 kts 196°
2026-04-24 00:41 1.40491 -77.28875 5872 ft 26 kts 195°
2026-04-24 00:41 1.40280 -77.28931 5875 ft 32 kts 195°
2026-04-24 00:41 1.40067 -77.28988 5886 ft 31 kts 195°
2026-04-24 00:42 1.39862 -77.29042 5895 ft 30 kts 194°
2026-04-24 00:42 1.39694 -77.29081 5904 ft 9 kts 179°
2026-04-24 00:42 1.39659 -77.29025 5907 ft 9 kts 124°
2026-04-24 00:42 1.39602 -77.29024 5907 ft 9 kts 204°
2026-04-24 00:43 1.39548 -77.29029 5910 ft 3 kts 122°
2026-04-24 00:43 1.39542 -77.29010 5910 ft 5 kts 107°
2026-04-24 00:43 1.39540 -77.29000 5910 ft 0 kts 105°